SCOUT A DEB, 2140

Orbit data source: Space-Track

SCOUT A DEB, 2140 is space debris in LEO originally from a launch on Fri, 28 Jan 1966 UTC launched from the Air Force Western Test Range (AFWTR). Debris objects in space refer to the collection of defunct objects orbiting the Earth. Examples of debris include non-operational satellites, rocket bodies, and fragments generated from explosions, collisions, or faulty payload assembly.

Loading next visibility...
Identifier
2140, 1966-005C
Orbit
LEO
Last TLE update
17 hours ago
Origin
Manufacturer
Unknown
Mission
Spacecraft
Bus & Motor
Unknown
Mass
Unknown
Launch date (UTC)
1966-01-28 (59 years ago)
Launch vehicle
Unknown
Launch site
Air Force Western Test Range (AFWTR)
Object type
Payload
Rocket body
Debris
Shape & HBR
Unknown
Radar Cross Section
Small (<0.1 m²)

Expand to show TLE details & history

TLE from 17 hours ago
0 SCOUT A DEB
1 02140U 66005C   25181.64528022  .00000153  00000-0  16550-3 0  9999
2 02140  89.9482  52.1962 0318090 120.2452 243.0593 13.48246454911087
Epoch: 2025-06-30T15:29Z
TLE epoch observation values (Epoch: 2025-06-30T15:29:12.211Z)
Latitude
-0.00004°
Longitude
-99.05679°
Altitude
1,195.03 km
Speed
7.201 km/s
True Right ascension
03h 28m 47s
True Declination
0° 00' 00"
Sunlit
Object was in daylight at epoch
Visualization orbit readout
Latitude
-20.94492°
Longitude
80.95924°
Altitude
1,048.405 km
Speed
7.345 km/s
Apparent Right ascension
12h 43m 36s
Apparent Declination
-44° 00' 13"
Sunlit
Object is in full shadow
Visualization observer readout
Local Sidereal Time
20:06:41
Azimuth
241.238° WSW
Elevation
-39.897°
Doppler factor
1
Orbital elements
Apogee altitude
1,312.866 km
Perigee altitude
838.664 km
Semi-major axis
7,453.902 km
Eccentricity
0.03181
Inclination
89.9482°
RAAN
52.1962°
Arg. of periapsis
120.2452°
True anomaly
Unknown
Mean anomaly
243.0593°
Eccentric anomaly
Unknown
Mean motion
3.37262 °/min
Orbital period
106.74 mins
BSTAR
0.0001655
Loading maneuver chart data...
Loading SW <> Apogee altitude chart data...
Loading historical data...
Loading historical data...
Loading historical data...
Loading historical data...
Loading historical data...
Loading historical data...
Loading historical data...

SCOUT A DEB Visibility forecast

Observer location: undefined°, undefined°

Span
Click to sort rows by Start time (UTC) header in descending order
Start Az.
Max El. time (UTC)
Max El. Az.
Max El.
End time (UTC)
End Az.
10 mins2025-07-01 14:45:33.615Z135.812° SSE2025-07-01 14:50:33.615Z82.795° E27.323°2025-07-01 14:55:33.615Z21.784° NNE
10 mins2025-07-01 16:32:33.615Z212.776° SW2025-07-01 16:37:33.615Z279.695° WNW31.584°2025-07-01 16:42:33.615Z339.391° N
9 mins2025-07-02 03:42:33.615Z2.554° NNE2025-07-02 03:46:33.615Z11.226° NNE44.849°2025-07-02 03:51:33.615Z183.293° SSW
|